Home   Weather   Tromsø   Past weeks
Flag for Norway

Past Weather in Tromsø, Norway — Yesterday and Last 2 Weeks

Now
38 °F

Scattered clouds.


Feels Like: 32 °F
Forecast: 40 / 35 °F
Wind: 7 mph from South

Location: Tromso / Langnes

Current Time: Oct 22, 2019 at 3:56:15 pm

Latest Report: Oct 22, 2019 at 3:00 pm


Visibility: 31 mi

Pressure: 28.85 "Hg

Humidity: 79%

Dew Point: 31 °F

Location of TromsøLocation

Past Weather in Tromsø — Graph

°F

Tromsø Temperature Yesterday

Maximum temperature yesterday: 36 °F (at 12:00 am)
Minimum temperature yesterday: 32 °F (at 3:00 pm)
Average temperature yesterday: 33 °F

High & Low Weather Summary for the Past Weeks

 TemperatureHumidityPressure
High42 °F (Oct 8, 1:00 pm)99% (Oct 11, 6:00 am)30.11 "Hg (Oct 11, 6:00 am)
Low22 °F (Oct 20, 12:00 am)52% (Oct 20, 5:00 pm)28.91 "Hg (Oct 22, 1:00 pm)
Average32 °F84%29.76 "Hg
* Reported Oct 7 1:00 pm — Oct 22 1:00 pm, Tromsø. Weather by CustomWeather, © 2019

Note: Actual official high and low records may vary slightly from our data, if they occured in-between our weather recording intervals... More about our weather records

Advertising

Tromsø Weather History for the Previous 24 Hours

Scroll right to see more
 ConditionsComfort  
Time TempWeatherWind HumidityBarometerVisibility
1:00 pm
Tue, Oct 22
35 °FRain showers. Overcast.9 mph90%28.91 "Hg9 mi
12:00 pm35 °FLight rain. Haze.12 mph91%28.94 "Hg12 mi
11:00 am38 °FPartly sunny.9 mph69%28.97 "Hg31 mi
10:00 am35 °FScattered clouds.1 mph76%29.00 "Hg31 mi
9:00 am34 °FChilly.2 mph81%29.06 "HgN/A
7:00 am32 °FPassing clouds.2 mph89%29.21 "Hg31 mi
6:00 am31 °FOvercast.2 mph87%29.26 "Hg31 mi
5:00 am31 °FClear.1 mph88%29.32 "Hg31 mi
4:00 am32 °FClear.No wind88%29.41 "Hg31 mi
3:00 am32 °FClear.2 mph86%29.47 "Hg31 mi
2:00 am33 °FPassing clouds.3 mph81%29.50 "Hg31 mi
1:00 am32 °FOvercast.2 mph81%29.57 "Hg31 mi
12:00 am32 °FOvercast.3 mph90%29.62 "Hg28 mi
11:00 pm
Mon, Oct 21
33 °FOvercast.3 mph89%29.65 "Hg25 mi
10:00 pm32 °FOvercast.2 mph91%29.68 "Hg22 mi
9:00 pm33 °FPassing clouds.2 mph89%29.71 "Hg19 mi
8:00 pm32 °FRain showers. Overcast.2 mph91%29.73 "Hg9 mi
7:00 pm33 °FOvercast.2 mph89%29.76 "Hg22 mi
6:00 pm32 °FOvercast.3 mph92%29.78 "Hg15 mi
5:00 pm32 °FOvercast.2 mph92%29.79 "Hg17 mi
4:00 pm32 °FOvercast.3 mph92%29.81 "Hg14 mi
3:00 pm32 °FLight snow. Overcast.6 mph93%29.81 "Hg4 mi
Weather by CustomWeather, © 2019

See weather overview